Time,TemperatureF,DewpointF,PressureIn,WindDirection,WindDirectionDegrees,WindSpeedMPH,WindSpeedGustMPH,Humidity,HourlyPrecipIn,Conditions,Clouds,dailyrainin,SoftwareType,DateUTC
2015-08-31 00:01:00,56.5,34.9,30.00,North,0,0.0,0.0,44,0.00,,SKC,0.00,VWS V14.00,2015-08-31 07:01:00,
2015-08-31 00:31:00,56.6,34.4,30.00,North,0,0.0,0.0,43,0.00,,SKC,0.00,VWS V14.00,2015-08-31 07:31:00,
2015-08-31 01:01:00,56.9,34.1,30.00,North,0,0.0,0.0,42,0.00,,SKC,0.00,VWS V14.00,2015-08-31 08:01:00,
2015-08-31 01:31:00,56.6,32.0,29.99,North,0,0.0,2.0,39,0.00,,SKC,0.00,VWS V14.00,2015-08-31 08:31:00,
2015-08-31 02:01:00,56.3,32.3,29.99,North,0,0.0,0.0,40,0.00,,SKC,0.00,VWS V14.00,2015-08-31 09:01:00,
2015-08-31 02:31:00,56.2,37.3,29.99,North,0,0.0,0.0,49,0.00,,SKC,0.00,VWS V14.00,2015-08-31 09:31:00,
2015-08-31 03:01:00,56.3,43.0,29.99,North,0,0.0,0.0,61,0.00,,SKC,0.00,VWS V14.00,2015-08-31 10:01:00,
2015-08-31 03:31:00,56.2,42.1,29.98,North,0,0.0,2.0,59,0.00,,SKC,0.00,VWS V14.00,2015-08-31 10:31:00,
2015-08-31 04:01:00,55.9,41.8,29.98,North,0,0.0,0.0,59,0.00,,SKC,0.00,VWS V14.00,2015-08-31 11:01:00,
2015-08-31 04:31:00,55.6,43.6,29.98,North,0,0.0,0.0,64,0.00,,SKC,0.00,VWS V14.00,2015-08-31 11:31:00,
2015-08-31 05:01:00,55.4,48.7,29.98,North,0,0.0,1.0,78,0.00,,SKC,0.00,VWS V14.00,2015-08-31 12:01:00,
2015-08-31 05:31:00,55.4,50.3,29.98,North,0,0.0,0.0,83,0.00,,SKC,0.00,VWS V14.00,2015-08-31 12:31:00,
2015-08-31 06:01:00,55.0,49.3,29.98,North,0,0.0,0.0,81,0.00,,SKC,0.00,VWS V14.00,2015-08-31 13:01:00,
2015-08-31 06:31:00,54.2,48.8,29.98,North,0,0.0,0.0,82,0.00,,SKC,0.00,VWS V14.00,2015-08-31 13:31:00,
2015-08-31 07:01:00,53.6,48.9,29.98,North,0,0.0,0.0,84,0.00,,SKC,0.00,VWS V14.00,2015-08-31 14:01:00,
2015-08-31 07:31:00,53.9,50.1,29.99,North,0,0.0,0.0,87,0.00,,SKC,0.00,VWS V14.00,2015-08-31 14:31:00,
2015-08-31 08:01:00,55.0,51.2,29.99,North,0,0.0,0.0,87,0.00,,SKC,0.00,VWS V14.00,2015-08-31 15:01:00,
2015-08-31 08:31:00,56.7,51.3,29.99,North,0,0.0,0.0,82,0.00,,SKC,0.00,VWS V14.00,2015-08-31 15:31:00,
2015-08-31 09:01:00,59.6,29.7,29.99,SSE,155,1.0,2.0,32,0.00,,SKC,0.00,VWS V14.00,2015-08-31 16:01:00,
2015-08-31 09:31:00,62.3,17.0,29.99,SE,141,0.0,4.0,17,0.00,,SKC,0.00,VWS V14.00,2015-08-31 16:31:00,
2015-08-31 10:01:00,64.5,8.9,29.98,ESE,116,1.0,5.0,11,0.00,,SKC,0.00,VWS V14.00,2015-08-31 17:01:00,
2015-08-31 10:31:00,67.9,-5.5,29.98,South,188,0.0,6.0,5,0.00,,SKC,0.00,VWS V14.00,2015-08-31 17:31:00,
2015-08-31 11:01:00,69.6,-8.9,29.98,SSE,158,0.0,5.0,4,0.00,,SKC,0.00,VWS V14.00,2015-08-31 18:01:00,
2015-08-31 11:31:00,69.1,-15.0,29.97,South,169,0.0,3.0,3,0.00,,SKC,0.00,VWS V14.00,2015-08-31 18:31:00,
2015-08-31 12:01:00,70.6,0.0,29.96,South,176,0.0,3.0,0,0.00,,SKC,0.00,VWS V14.00,2015-08-31 19:01:00,
2015-08-31 12:31:00,71.3,0.0,29.95,SSE,160,0.0,2.0,0,0.00,,SKC,0.00,VWS V14.00,2015-08-31 19:31:00,
2015-08-31 13:01:00,71.3,0.0,29.94,SSE,161,0.0,5.0,0,0.00,,SKC,0.00,VWS V14.00,2015-08-31 20:01:00,
2015-08-31 13:31:00,73.0,0.0,29.94,East,82,0.0,3.0,0,0.00,,SKC,0.00,VWS V14.00,2015-08-31 20:31:00,
2015-08-31 14:01:00,73.5,0.0,29.93,SSE,151,2.0,2.0,0,0.00,,SKC,0.00,VWS V14.00,2015-08-31 21:01:00,
2015-08-31 14:31:00,74.0,0.0,29.92,SSE,147,1.0,3.0,0,0.00,,SKC,0.00,VWS V14.00,2015-08-31 21:31:00,
2015-08-31 15:01:00,74.6,0.0,29.91,NE,49,0.0,2.0,0,0.00,,SKC,0.00,VWS V14.00,2015-08-31 22:01:00,
2015-08-31 16:01:00,72.3,0.0,29.90,NNW,342,0.0,3.0,0,0.00,,SKC,0.00,VWS V14.00,2015-08-31 23:01:00,
2015-08-31 16:31:00,72.7,0.0,29.89,NNW,342,1.0,2.0,0,0.00,,SKC,0.00,VWS V14.00,2015-08-31 23:31:00,
2015-08-31 17:01:00,72.5,0.0,29.89,NNW,342,1.0,2.0,0,0.00,,SKC,0.00,VWS V14.00,2015-09-01 00:01:00,
2015-08-31 17:31:00,72.1,0.0,29.88,NNW,342,0.0,2.0,0,0.00,,SKC,0.00,VWS V14.00,2015-09-01 00:31:00,